{"data":{"norad_id":41921,"intl_designator":"2017-003E","name":"IRIDIUM 105","alt_names":[],"object_type":"PAYLOAD","status":"ACTIVE","operator":null,"country":"US","launch_date":"2017-01-14","launch_site_code":"AFWTR","launch_vehicle":null,"mission":null,"orbit_class":"UNKNOWN","rcs_meters":2.2529,"size_class":null,"mass_kg":null,"dimensions":null,"purposes":["comms"],"wikipedia_slug":null,"has_3d_model":false,"image_url":null,"decayed_at":null,"tle_current":{"epoch":"2026-05-25T01:29:36.970080Z","epoch_age_seconds":72942,"freshness":"FRESH","line1":"1 41921U 17003E   26145.06223345  .00000227  00000+0  73835-4 0  9991","line2":"2 41921  86.3971  66.5365 0002411  90.0307 270.1165 14.34217990491827","mean_motion":14.3421799,"eccentricity":0.0002411,"inclination_deg":86.3971,"raan_deg":66.5365,"arg_perigee_deg":90.0307,"mean_anomaly_deg":270.1165,"bstar":7.3835e-5,"rev_number":49182,"period_min":100.40314722311,"perigee_km":775.94109186959,"apogee_km":779.39162024788,"semimajor_km":7155.8033560587,"source":"CELESTRAK","updated_at":"2026-05-25T13:38:14.763683Z"}}}